Find Starlink 35117

NORAD ID: 65632 Int'l Des: 2025-210 Owner: SPXS Country: US Constellation: starlink operational
LEOCIRCULAR

当前视图

正在加载3D地球...

About Starlink 35117

Starlink 35117 (NORAD 65632) is a starlink constellation satellite (v2 mini) launched Sep 18, 2025 by SPXS of US. It operates in LEO, CIRCULAR orbit with a mass of 575.00 kg.

即将过境

Passes for default location (London). Set your location on the main map for personalized predictions.

高度历史

Loading altitude history...

两行轨道根数

1 65632U 25210L 26264.15261267 .00012919 00000-0 39271-3 0 9999
2 65632 53.1588 118.7306 0001097 92.9583 267.1545 15.34408397 57661
Epoch: Sep 21, 2026 • Age: 13 hours

当前状态

高度 467.1 km
远地点 / 近地点 N/A
速度 7.64 km/s
星下点 46.78°N, 78.64°W
发射日期 Sep 18, 2025
运行时间 1 year
类型 internet

技术详情

分类 Payload
质量 575.00 kg
干质量 530.00 kg
长度 0.30 m
跨度 29.00 m
形状 ? Box + pan
制造商 SPXS
平台类型 Starlink V2MO
阶段状态 In Orbit
所有者/国家 SPXS/US

Most Searched